星链-36568(STARLINK-36568)

导读

STARLINK-36568(NORAD编号68017)是SpaceX星链星座中的一颗近地轨道通信卫星,隶属于全球规模最大的卫星互联网组网项目。星链星座通过部署大量低轨卫星,为全球提供高速低延迟宽带互联网服务,可支持流媒体、视频通话、远程办公等应用,尤其能覆盖地面网络无法抵达的偏远区域。 作为星链批量生产发射的卫星之一,它采用紧凑平板设计,适配猎鹰9号火箭密集发射构型,依托SpaceX的可重复发射技术控制组网成本,助力星链实现持续的星座扩容与技术迭代,推动全球太空通信基础设施建设。

Basic Information
目录编号:
68017
目录名称:
STARLINK-36568
国际标识:
2026-040C
轨道中心:
EARTH
卫星名称:
星链-36568
卫星全名:
星链-36568(STARLINK-36568)
卫星状态:
在轨 (已飞行104 天)
发射日期:
2026-03-01 UTC
国别 :
美国 (US)
星等 :
--
Orbit Information
数据来源 国际轨道数据 AOE轨道数据
星历时间 2026-06-13T04:29:20+0800
8小时前
查看轨道信息
2026-06-11T06:00:00+0800
2天前
查看轨道信息
半长轴 6843.635km 6843.726km
偏心率 0.0001868 0.0001467
轨道倾角 97.284° 97.281°
近地点辐角 102.467° 158.930°
升交点赤经 112.555° 110.646°
平近点角 257.678° 314.998°
近地点 464.219km 464.585km
远地点 466.777km 466.593km
周期 93.905分钟 93.907分钟
每日圈数 15.334603 15.334296
Detailed Information
固有亮度:
5
最大亮度:
2.5
卫星平台:
Starlink V1.0
覆盖范围:
全球
运营商:
太空探索技术公司
运营商所在国:
美国
制造商(研发单位):
太空探索技术公司
制造商所在国:
美国
使用方式:
暂无
Satellite Introduction
Starlink 计划是 SpaceX 推出的全球卫星互联网项目,通过发射低轨道卫星,为全球尤其是偏远地区提供高速、低延迟的互联网服务。自 2019 年起,Starlink 已部署数千颗卫星,旨在缩小全球数字鸿沟,推动互联网普及。该项目还为军事、航空等行业提供通信支持,带来广泛经济效益。
2D Orbit Map
3D Orbit Map
Orbit Altitude Analysis Chart
Orbit Inclination Analysis Chart
Orbit Comprehensive Analysis Chart
View Comprehensive Chart